Orbital Elements at Epoch 2459200.5 (2020-Dec-17.0) TDB
Reference: JPL 20 (heliocentric ecliptic J2000)
Element | Value | Uncertainty (1-sigma) | Units |
e | .1068638955179012 | 5.294e-08 | |
a | 2.689612366057007 | 2.5835e-08 | au |
q | 2.402189911187036 | 1.468e-07 | au |
i | 14.87864874201262 | 5.2151e-06 | deg |
node | 82.90464750836607 | 2.5195e-05 | deg |
peri | 235.2408194234587 | 3.7569e-05 | deg |
M | 286.5575062456141 | 2.9896e-05 | deg |
tp | 2459529.183482942661 (2021-Nov-10.68348294) | 0.00013508 | TDB |
period | 1611.138835441461 4.41 | 2.3213e-05 6.355e-08 | d yr |
n | .2234444307844879 | 3.2194e-09 | deg/d |
Q | 2.977034820926978 | 2.8595e-08 | au |
|
| | Orbit Determination Parameters
Additional Information
|